Kirkcudbright, United Kingdom
Current Conditions -  °F | °C
As of 3:50 AM on Wednesday 22 Oct 2014 (Local Time) from EGPK Reporting Station
Scattered Clouds Scattered Clouds  
Wind Chill: 52°   Ceiling: Unl
Heat Index: 52°   Visibility: 6mi
Dew Point: 43°   Wind: 15mph
Humidity: 71%   Direction: 280°W
Pressure: 30.09"   Gusts: NA
Location:  54.84°N, 4.05°W
Report Text: EGPK 220250Z 28013KT 9999 FEW026 SCT048 11/06 Q1019
Loading
Personal Weather Stations






























Interactive Weather Map
Tropical Storm Tracking
New forecast layout! Learn more

10-Day Weather Forecast

Advertisements
Track Severe Weather on mobile